Location: Six Mile Lake
(44.9000°N, 79.7170°W)
Time: 13:04:13
(UTC-04:00)

NOAA 18 - Pass Details

Date: 02 July 2022
Orbit: 839 x 860 km, 98.9° (Epoch: 18 August)

Event Time Altitude Azimuth Distance (km) Brightness Sun altitude
Exits shadow 21:50:24 - 125° (SE) 2,674 7.1 -6.6°
Reaches altitude 10° 21:50:58 10° 122° (ESE) 2,480 7.0 -6.7°
Maximum altitude 21:55:40 30° 64° (ENE) 1,494 6.3 -7.3°
Drops below altitude 10° 22:00:25 10° 5° (N) 2,504 8.3 -7.9°
Sets 22:03:03 0° 355° (N) 3,447 9.2 -8.3°
